TimeMDT,TemperatureF,Dew PointF,Humidity,Sea Level PressureIn,VisibilityMPH,Wind Direction,Wind SpeedMPH,Gust SpeedMPH,PrecipitationIn,Events,Conditions,WindDirDegrees,DateUTC
12:53 AM,36.0,18.0,48,30.09,10.0,South,3.5,-,N/A,,Clear,190,2013-04-02 06:53:00
1:53 AM,33.1,18.0,54,30.08,10.0,South,5.8,-,N/A,,Clear,170,2013-04-02 07:53:00
2:53 AM,32.0,17.1,54,30.08,10.0,South,3.5,-,N/A,,Clear,170,2013-04-02 08:53:00
3:53 AM,33.1,17.1,52,30.05,10.0,South,5.8,-,N/A,,Clear,190,2013-04-02 09:53:00
4:53 AM,33.1,17.1,52,30.05,10.0,SSE,4.6,-,N/A,,Clear,160,2013-04-02 10:53:00
5:53 AM,35.1,15.1,44,30.05,10.0,SSW,3.5,-,N/A,,Clear,210,2013-04-02 11:53:00
6:53 AM,30.0,15.1,54,30.09,10.0,SW,4.6,-,N/A,,Clear,220,2013-04-02 12:53:00
7:53 AM,36.0,19.0,50,30.10,10.0,SSE,5.8,-,N/A,,Clear,160,2013-04-02 13:53:00
8:53 AM,41.0,23.0,49,30.11,10.0,SE,8.1,-,N/A,,Clear,140,2013-04-02 14:53:00
9:53 AM,48.9,19.0,31,30.08,10.0,SSE,13.8,-,N/A,,Clear,150,2013-04-02 15:53:00
10:53 AM,52.0,18.0,26,30.05,10.0,SSE,13.8,-,N/A,,Clear,160,2013-04-02 16:53:00
11:53 AM,55.0,19.0,24,30.04,10.0,SE,13.8,-,N/A,,Clear,140,2013-04-02 17:53:00
12:53 PM,57.0,19.0,23,30.01,10.0,SSE,12.7,24.2,N/A,,Clear,150,2013-04-02 18:53:00
1:53 PM,59.0,19.0,21,30.00,10.0,SSE,12.7,23.0,N/A,,Clear,150,2013-04-02 19:53:00
2:53 PM,61.0,19.0,20,29.98,10.0,SSE,16.1,23.0,N/A,,Clear,150,2013-04-02 20:53:00
3:53 PM,61.0,17.1,18,29.96,10.0,South,17.3,-,N/A,,Clear,170,2013-04-02 21:53:00
4:53 PM,61.0,16.0,17,29.96,10.0,SE,15.0,25.3,N/A,,Clear,140,2013-04-02 22:53:00
5:53 PM,60.1,16.0,18,29.94,10.0,SSE,15.0,-,N/A,,Clear,150,2013-04-02 23:53:00
6:53 PM,57.9,16.0,19,29.96,10.0,SE,11.5,-,N/A,,Clear,140,2013-04-03 00:53:00
7:53 PM,50.0,18.0,28,29.97,10.0,South,5.8,-,N/A,,Clear,170,2013-04-03 01:53:00
8:53 PM,46.9,19.0,33,29.97,10.0,Calm,Calm,-,N/A,,Clear,0,2013-04-03 02:53:00
9:53 PM,46.0,21.0,37,29.94,10.0,SSW,5.8,-,N/A,,Clear,210,2013-04-03 03:53:00
10:53 PM,46.9,21.0,36,29.92,10.0,SSW,3.5,-,N/A,,Clear,210,2013-04-03 04:53:00
11:53 PM,43.0,19.0,38,29.91,10.0,WSW,4.6,-,N/A,,Clear,250,2013-04-03 05:53:00